Weather History for Pasco, WA

Change the Weather History Date:

Saturday, December 8, 2012

  Actual Average Record
Temperature  
Mean Temperature 38 °F 34 °F  
Max Temperature 44 °F 41 °F 59 °F (1989)
Min Temperature 31 °F 27 °F -2 °F (2009)
Degree Days  
Heating Degree Days 27 31  
Month to date heating degree days 146 241  
Since 1 July heating degree days 1243 1470  
Cooling Degree Days 0 0  
Month to date cooling degree days 0 0  
Year to date cooling degree days 788 710  
Moisture  
Dew Point 29 °F    
Average Humidity 75    
Maximum Humidity 92    
Minimum Humidity 57    
Precipitation  
Precipitation 0.00 in - 0.37 in (1983)
Month to date precipitation 0.27  
Year to date precipitation 8.83  
Snow  
Snow 0.00 in - - ()
Snow Depth 0.00 in    
Sea Level Pressure  
Sea Level Pressure 30.22 in    
Wind  
Wind Speed 6 mph (West)    
Max Wind Speed 14 mph    
Max Gust Speed 17 mph    
Visibility 10 miles    
Events Snow    
T = Trace of Precipitation, MM = Missing Value Source: NWS Daily Summary

Daily Weather History Graph

Daily Weather History Graph

Search for Another Location

Airport:

Trip Planner

Search our weather history database for the weather conditions in past years. The results will help you decide how hot, cold, wet, or windy it might be!

Date:

Astronomy

Dec. 08, 2012 Rise Set
Actual Time 7:27 AM PST 4:10 PM PST
Civil Twilight 6:52 AM PST 4:44 PM PST
Nautical Twilight 6:14 AM PST 5:22 PM PST
Astronomical Twilight 5:38 AM PST 5:59 PM PST
Moon 1:42 AM PST (12/8) 12:55 PM PST (12/8)
Length of Visible Light 9h 52m
Length of Day
8h 43m
Waning Crescent, 27% of the Moon is Illuminated
Dec 8
Waning Crescent
Dec 13
New
Dec 19
First Quarter
Dec 28
Full
Jan 4
Last Quarter

Hourly Weather History & Observations

Time (PST) Temp. Windchill Dew Point Humidity Pressure Visibility Wind Dir Wind Speed Gust Speed Precip Events Conditions
12:53 AM 39.0 °F 31.4 °F 26.1 °F 60% 30.08 in 9.0 mi WSW 12.7 mph - 0.00 in   Clear
1:53 AM 37.9 °F 29.6 °F 27.0 °F 65% 30.09 in 9.0 mi WSW 13.8 mph - 0.00 in Snow Light Snow
3:53 AM 36.0 °F 31.1 °F 26.1 °F 67% 30.12 in 9.0 mi SW 5.8 mph - 0.00 in   Scattered Clouds
4:53 AM 36.0 °F 29.0 °F 26.1 °F 67% 30.13 in 9.0 mi SW 9.2 mph - 0.00 in Snow Light Snow
5:53 AM 36.0 °F - 27.0 °F 70% 30.14 in 10.0 mi Calm Calm - 0.00 in   Clear
6:53 AM 34.0 °F 31.0 °F 28.0 °F 79% 30.16 in 10.0 mi ESE 3.5 mph - 0.00 in   Mostly Cloudy
7:53 AM 32.0 °F - 28.0 °F 85% 30.17 in 10.0 mi Calm Calm - N/A   Mostly Cloudy
8:53 AM 35.1 °F - 28.9 °F 78% 30.18 in 10.0 mi Calm Calm - N/A   Overcast
9:53 AM 36.0 °F - 32.0 °F 86% 30.21 in 10.0 mi Calm Calm - N/A   Overcast
10:53 AM 39.0 °F - 30.9 °F 73% 30.21 in 10.0 mi Calm Calm - 0.00 in   Overcast
11:53 AM 41.0 °F 39.0 °F 32.0 °F 70% 30.20 in 10.0 mi East 3.5 mph - N/A   Overcast
12:53 PM 42.1 °F 40.2 °F 30.9 °F 65% 30.21 in 10.0 mi ESE 3.5 mph - N/A   Overcast
1:53 PM 43.0 °F 38.2 °F 28.0 °F 56% 30.22 in 10.0 mi WNW 8.1 mph - N/A   Overcast
2:53 PM 42.1 °F 39.2 °F 28.0 °F 58% 30.22 in 10.0 mi WNW 4.6 mph - N/A   Overcast
3:53 PM 39.9 °F 36.7 °F 30.0 °F 68% 30.24 in 10.0 mi WSW 4.6 mph - N/A   Overcast
4:53 PM 37.9 °F - 30.0 °F 73% 30.26 in 10.0 mi Calm Calm - N/A   Mostly Cloudy
5:53 PM 35.1 °F - 30.9 °F 85% 30.27 in 10.0 mi Calm Calm - N/A   Mostly Cloudy
6:53 PM 35.1 °F - 30.9 °F 85% 30.28 in 9.0 mi Calm Calm - 0.00 in   Overcast
7:53 PM 33.1 °F 30.0 °F 30.9 °F 92% 30.30 in 10.0 mi ENE 3.5 mph - N/A   Partly Cloudy
8:53 PM 32.0 °F 28.7 °F 30.0 °F 92% 30.32 in 10.0 mi North 3.5 mph - 0.00 in   Clear
9:53 PM 32.0 °F 27.5 °F 30.0 °F 92% 30.34 in 9.0 mi NNW 4.6 mph - 0.00 in Snow Light Snow
10:53 PM 32.0 °F 27.5 °F 30.0 °F 92% 30.36 in 10.0 mi North 4.6 mph - 0.00 in   Partly Cloudy
11:53 PM 32.0 °F - 30.0 °F 92% 30.38 in 10.0 mi Calm Calm - 0.00 in   Mostly Cloudy